Regional Weather Roundup
Issued by NWS

Home | Current Version | Previous Version | Text Only | Print | Product List | Glossary Off
Versions: 1 2 3 4 5 6 7 8 9 10 11 12 13 14 15 16 17 18 19 20 21 22 23 24 25 26 27 28 29 30 31 32 33 34 35 36 37 38 39 40 41 42 43 44 45 46 47 48 49 50

000
ASUS43 KLMK 252210
RWRKY
KENTUCKY REGIONAL WEATHER ROUNDUP
NATIONAL WEATHER SERVICE LOUISVILLE KY
600 PM EDT SAT APR 25 2015

NOTE "FAIR" INDICATES FEW OR NO CLOUDS BELOW 12,000 FEET
WITH NO SIGNIFICANT WEATHER AND/OR OBSTRUCTIONS TO VISIBILITY.

KYZ001>023-026-027-061>063-070>075-252300-
WESTERN AND SOUTH CENTRAL KENTUCKY

CITY           SKY/WX    TMP DP  RH WIND       PRES   REMARKS
PADUCAH        SUNNY     78  59  51 SW17G29   29.44F
HENDERSON      PTSUNNY   70  57  64 E8        29.42F
OWENSBORO      TSTM      70  64  81 N14       29.47S
HOPKINSVILLE   SUNNY     80  57  46 SW21      29.46F HAZE
BOWLING GREEN  PTSUNNY   81  55  40 SW18G28   29.47F
GLASGOW        SUNNY     80  55  42 SW17G25   29.47F
$$

KYZ024-025-028>034-038-045-046-053-252300-
NORTH CENTRAL KENTUCKY

CITY           SKY/WX    TMP DP  RH WIND       PRES   REMARKS
LOUISVILLE/SDF CLOUDY    56  52  86 NE13      29.54S
LOUISVILLE/LOU CLOUDY    54  50  86 NE15G22   29.55F
FORT KNOX      LGT RAIN  59  55  88 N16       29.48S
$$

KYZ035>037-039>044-047>052-055>060-089>105-252300-
NORTHEAST KENTUCKY

CITY           SKY/WX    TMP DP  RH WIND       PRES   REMARKS
LEXINGTON      CLOUDY    53  50  89 NE18      29.58R
COVINGTON      LGT RAIN  45  45 100 NE14G21   29.65R FOG
FRANKFORT      CLOUDY    52  48  86 NE12      29.57S
$$

KYZ054-064>069-076>088-106>120-252300-
SOUTHEAST KENTUCKY

CITY           SKY/WX    TMP DP  RH WIND       PRES   REMARKS
JACKSON        PTSUNNY   70  59  68 CALM      29.54S
LONDON         MOSUNNY   80  56  43 W9        29.51F
SOMERSET       SUNNY     77  54  44 W9        29.52F
MIDDLESBORO    NOT AVBL
MONTICELLO     PTCLDY    80  56  43 SW17G25   29.53F
$$



USA.gov is the U.S. government's official web portal to all federal, state and local government web resources and services.